Weather History for Ft Lauderdale, FL

Change the Weather History Date:

Tuesday, February 5, 2013

  Actual Average Record
Temperature  
Mean Temperature 67 °F 70 °F  
Max Temperature 77 °F 77 °F 89 °F (1985)
Min Temperature 57 °F 63 °F 31 °F (1958)
Degree Days  
Heating Degree Days 0 1  
Month to date heating degree days 2 5  
Since 1 July heating degree days 26 85  
Cooling Degree Days 2 6  
Month to date cooling degree days 5 30  
Year to date cooling degree days 260 200  
Growing Degree Days 16 (Base 50)    
Moisture  
Dew Point 58 °F    
Average Humidity 70    
Maximum Humidity 86    
Minimum Humidity 53    
Precipitation  
Precipitation 0.00 in 0.10 in 2.80 in (1964)
Month to date precipitation 0.00 0.54  
Year to date precipitation 0.98 4.17  
Snow  
Snow 0.00 in - - ()
Month to date snowfall 0.0  
Since 1 July snowfall 0.0  
Snow Depth 0.00 in    
Sea Level Pressure  
Sea Level Pressure 30.05 in    
Wind  
Wind Speed 5 mph (SE)    
Max Wind Speed 14 mph    
Max Gust Speed 18 mph    
Visibility 10 miles    
Events      
T = Trace of Precipitation, MM = Missing Value Source: NWS Daily Summary

Daily Weather History Graph

Daily Weather History Graph

Search for Another Location

Airport:

Trip Planner

Search our weather history database for the weather conditions in past years. The results will help you decide how hot, cold, wet, or windy it might be!

Date:

Astronomy

Feb. 05, 2013 Rise Set
Actual Time 7:02 AM EST 6:07 PM EST
Civil Twilight 6:38 AM EST 6:30 PM EST
Nautical Twilight 6:11 AM EST 6:58 PM EST
Astronomical Twilight 5:44 AM EST 7:25 PM EST
Moon 2:32 AM EST (2/5) 1:33 PM EST (2/5)
Length of Visible Light 11h 52m
Length of Day
11h 04m
Waning Crescent, 27% of the Moon is Illuminated
Feb 5
Waning Crescent
Feb 10
New
Feb 17
First Quarter
Feb 25
Full
Mar 4
Last Quarter

Hourly Weather History & Observations

Time (EST) Temp. Dew Point Humidity Pressure Visibility Wind Dir Wind Speed Gust Speed Precip Events Conditions
12:53 AM 62.1 °F 53.1 °F 72% 30.06 in 10.0 mi Calm Calm - N/A   Partly Cloudy
1:53 AM 60.1 °F 54.0 °F 80% 30.06 in 10.0 mi Calm Calm - N/A   Partly Cloudy
2:53 AM 59.0 °F 53.1 °F 81% 30.05 in 10.0 mi NNW 5.8 mph - N/A   Partly Cloudy
3:53 AM 59.0 °F 54.0 °F 83% 30.04 in 10.0 mi NNW 3.5 mph - N/A   Partly Cloudy
4:53 AM 57.9 °F 54.0 °F 87% 30.04 in 10.0 mi Calm Calm - N/A   Scattered Clouds
5:53 AM 57.9 °F 54.0 °F 87% 30.05 in 10.0 mi NNW 3.5 mph - N/A   Partly Cloudy
6:53 AM 57.9 °F 53.1 °F 84% 30.06 in 10.0 mi North 5.8 mph - N/A   Partly Cloudy
7:53 AM 61.0 °F 54.0 °F 78% 30.06 in 10.0 mi North 5.8 mph - N/A   Partly Cloudy
8:53 AM 69.1 °F 52.0 °F 54% 30.08 in 10.0 mi NE 3.5 mph - N/A   Partly Cloudy
9:53 AM 73.9 °F 55.9 °F 53% 30.09 in 10.0 mi Variable 3.5 mph - N/A   Partly Cloudy
10:53 AM 75.0 °F 57.9 °F 55% 30.08 in 10.0 mi SE 10.4 mph - N/A   Partly Cloudy
11:53 AM 75.9 °F 59.0 °F 56% 30.07 in 10.0 mi SE 8.1 mph - N/A   Partly Cloudy
12:53 PM 75.9 °F 59.0 °F 56% 30.05 in 10.0 mi SSE 10.4 mph - N/A   Mostly Cloudy
1:53 PM 73.9 °F 59.0 °F 59% 30.03 in 10.0 mi SE 9.2 mph - N/A   Mostly Cloudy
2:53 PM 75.0 °F 61.0 °F 62% 30.02 in 10.0 mi SE 10.4 mph - N/A   Mostly Cloudy
3:53 PM 73.9 °F 59.0 °F 59% 30.01 in 10.0 mi SSE 8.1 mph - N/A   Mostly Cloudy
4:53 PM 73.9 °F 60.1 °F 62% 30.01 in 10.0 mi SSE 10.4 mph - N/A   Mostly Cloudy
5:53 PM 73.0 °F 61.0 °F 66% 30.01 in 10.0 mi SSE 6.9 mph - N/A   Scattered Clouds
6:53 PM 71.1 °F 61.0 °F 70% 30.02 in 10.0 mi South 4.6 mph - N/A   Scattered Clouds
7:53 PM 71.1 °F 61.0 °F 70% 30.04 in 10.0 mi South 3.5 mph - N/A   Mostly Cloudy
8:53 PM 71.1 °F 62.1 °F 73% 30.04 in 10.0 mi SSE 3.5 mph - N/A   Scattered Clouds
9:53 PM 70.0 °F 62.1 °F 76% 30.05 in 10.0 mi Calm Calm - N/A   Partly Cloudy
10:53 PM 68.0 °F 62.1 °F 81% 30.06 in 10.0 mi Calm Calm - N/A   Scattered Clouds
11:53 PM 66.9 °F 62.1 °F 84% 30.05 in 10.0 mi Calm Calm - N/A   Mostly Cloudy